Flag for Germany Weather past 2 weeks in Soltau, Lower Saxony, Germany

Now
36 °F

Chilly.


Feels Like: 31 °F
Forecast: 46 / 67 °F
Wind: 6 mph from East

Location: Fassberg


UV Index: 3 (Moderate)

Visibility: 3 mi


Pressure: 30.01 "Hg

Humidity: 100%

Dew point: 36 °F

Location of SoltauLocation

Historic Weather in Soltau

°F

Soltau temperature yesterday

Maximum temperature yesterday: 50 °F (at 3:20 PM)
Minimum temperature yesterday: 41 °F (at 5:20 AM)
Average temperature yesterday: 45 °F

Past Weeks' High & Low Weather Summary

 TemperatureHumidityPressure
High68 °F (Apr 7, 4:20 PM)100% (Apr 5, 4:20 AM)30.48 "Hg (Apr 5, 4:20 AM)
Low27 °F (Apr 16, 4:20 AM)31% (Apr 17, 5:20 PM)29.71 "Hg (Apr 8, 2:20 AM)
Average48 °F79%30.02 "Hg
* Reported Apr 4 1:20 AM — Apr 19 1:20 AM, Soltau, Weather by CustomWeather, © 2014

Note: Actual official high and low records may vary slightly from our data, if they occured in-between our weather recording intervals... More about our weather records

Advertising

Historic Weather Conditions — Data for Previous 24 hours

 ConditionsComfort  
Time TempWeatherWind HumidityBarometerVisibility
1:20 AM
Apr 19
36 °FChilly.6 mph100%30.01 "Hg3 mi
12:20 AM39 °FChilly.5 mph93%30.01 "Hg3 mi
11:20 PM
Apr 18
41 °FQuite cool.7 mph100%29.98 "Hg6 mi
10:20 PM43 °FQuite cool.1 mph93%29.95 "Hg2 mi
9:20 PM43 °FQuite cool.3 mph93%29.95 "Hg6 mi
8:20 PM43 °FPartly sunny.5 mph93%29.92 "HgN/A
7:20 PM43 °FSprinkles. Partly sunny.6 mph93%29.89 "HgN/A
6:49 PM45 °FRain showers. Partly sunny.10 mph87%29.89 "Hg4 mi
6:20 PM45 °FPartly sunny.7 mph87%29.89 "HgN/A
5:20 PM43 °FPartly sunny.9 mph93%29.86 "HgN/A
4:20 PM50 °FSprinkles. Broken clouds.9 mph71%29.86 "HgN/A
3:20 PM50 °FScattered showers. Partly sunny.13 mph71%29.86 "HgN/A
2:20 PM48 °FBroken clouds.12 mph82%29.83 "HgN/A
1:20 PM48 °FBroken clouds.9 mph82%29.83 "HgN/A
12:20 PM46 °FBroken clouds.12 mph87%29.83 "HgN/A
11:20 AM48 °FCool.13 mph76%29.80 "Hg3 mi
10:20 AM46 °FCool.10 mph82%29.80 "Hg6 mi
9:20 AM45 °FQuite cool.12 mph87%29.80 "Hg4 mi
8:20 AM43 °FQuite cool.13 mph93%29.80 "Hg3 mi
7:20 AM41 °FQuite cool.8 mph93%29.77 "Hg2 mi
6:20 AM41 °FQuite cool.7 mph93%29.77 "Hg4 mi
5:20 AM41 °FPassing clouds.8 mph93%29.77 "HgN/A
4:20 AM43 °FPassing clouds.9 mph93%29.77 "HgN/A
3:20 AM43 °FPartly cloudy.7 mph93%29.77 "HgN/A
2:20 AM45 °FPassing clouds.7 mph87%29.80 "HgN/A
Weather by CustomWeather, © 2014

See weather overview